Flag for Japan Weather past 2 weeks in Nagoya, Japan

Now
46 °F

Passing clouds.


Feels Like: 38 °F
Forecast: 26 / 50 °F
Wind: 26 mph from Northwest

Location: Nagoya Airport

Current Time: Mar 2, 2015 at 8:40:52 PM

Latest Report: Mar 2, 2015 at 8:00 PM


Visibility: N/A

Pressure: 30.07 "Hg

Humidity: 62%

Dew point: 34 °F

Location of NagoyaLocation

Historic Weather in Nagoya — Graph

°F

Nagoya temperature yesterday

Maximum temperature yesterday: 50 °F (at 11:30 AM)
Minimum temperature yesterday: 43 °F (at 4:30 AM)
Average temperature yesterday: 47 °F

Past Weeks' High & Low Weather Summary

 TemperatureHumidityPressure
High57 °F (Feb 22, 12:00 PM)100% (Feb 22, 9:00 PM)30.33 "Hg (Feb 22, 9:00 PM)
Low36 °F (Feb 16, 5:30 AM)28% (Feb 28, 1:30 PM)29.62 "Hg (Mar 1, 2:30 PM)
Average46 °F70%30.01 "Hg
* Reported Feb 15 7:00 PM — Mar 2 7:30 PM, Nagoya, Weather by CustomWeather, © 2015

Note: Actual official high and low records may vary slightly from our data, if they occured in-between our weather recording intervals... More about our weather records

Advertising

Nagoya weather history for previous 24 hours

 ConditionsComfort  
Time TempWeatherWind HumidityBarometerVisibility
7:30 PM
Mon, Mar 2
46 °FPassing clouds.24 mph62%30.07 "HgN/A
7:00 PM46 °FPassing clouds.25 mph62%30.04 "HgN/A
6:30 PM46 °FPassing clouds.25 mph66%30.04 "HgN/A
6:00 PM46 °FPassing clouds.24 mph62%30.04 "HgN/A
5:30 PM48 °FPassing clouds.28 mph54%30.01 "HgN/A
5:00 PM48 °FPassing clouds.24 mph54%30.01 "HgN/A
4:30 PM48 °FPassing clouds.25 mph54%29.98 "HgN/A
4:00 PM50 °FPassing clouds.22 mph58%29.98 "HgN/A
3:30 PM50 °FPassing clouds.24 mph54%29.98 "HgN/A
3:00 PM50 °FPassing clouds.23 mph54%29.98 "HgN/A
2:30 PM48 °FPassing clouds.26 mph58%29.98 "HgN/A
2:00 PM50 °FPassing clouds.25 mph50%29.98 "HgN/A
1:30 PM50 °FPassing clouds.24 mph50%29.98 "HgN/A
1:00 PM50 °FPassing clouds.26 mph54%29.98 "HgN/A
12:30 PM50 °FScattered clouds.25 mph54%29.98 "HgN/A
12:00 PM50 °FScattered clouds.25 mph50%29.98 "HgN/A
11:30 AM48 °FPartly sunny.26 mph50%29.98 "HgN/A
11:00 AM48 °FPartly sunny.23 mph58%29.98 "HgN/A
10:30 AM46 °FScattered clouds.26 mph62%29.98 "HgN/A
10:00 AM46 °FScattered clouds.31 mph62%29.95 "HgN/A
9:30 AM48 °FPassing clouds.25 mph54%29.95 "HgN/A
9:00 AM46 °FPassing clouds.28 mph57%29.95 "HgN/A
8:30 AM46 °FPassing clouds.17 mph57%29.95 "HgN/A
8:00 AM46 °FScattered clouds.28 mph62%29.95 "HgN/A
7:30 AM45 °FScattered showers. Partly sunny.17 mph61%29.95 "HgN/A
7:00 AM43 °FPartly sunny.17 mph71%29.92 "HgN/A
6:30 AM45 °FPartly sunny.26 mph61%29.92 "HgN/A
6:00 AM45 °FPassing clouds.23 mph61%29.89 "HgN/A
5:30 AM45 °FPassing clouds.24 mph66%29.89 "HgN/A
4:30 AM43 °FPassing clouds.20 mph66%29.86 "HgN/A
4:00 AM45 °FSprinkles. Passing clouds.29 mph66%29.86 "HgN/A
3:30 AM45 °FPassing clouds.24 mph66%29.86 "HgN/A
3:00 AM45 °FScattered showers. Partly cloudy.21 mph66%29.86 "HgN/A
2:30 AM45 °FPassing clouds.22 mph66%29.86 "HgN/A
2:00 AM45 °FPassing clouds.18 mph71%29.86 "HgN/A
1:30 AM46 °FPassing clouds.18 mph62%29.86 "HgN/A
1:00 AM45 °FPassing clouds.25 mph71%29.83 "HgN/A
12:30 AM45 °FPassing clouds.30 mph71%29.80 "HgN/A
12:00 AM46 °FSprinkles. Passing clouds.30 mph71%29.80 "HgN/A
11:30 PM
Sun, Mar 1
46 °FSprinkles. Passing clouds.30 mph76%29.77 "HgN/A
11:00 PM46 °FScattered showers. Passing clouds.28 mph76%29.77 "HgN/A
10:30 PM46 °FSprinkles. Passing clouds.33 mph76%29.77 "HgN/A
10:00 PM46 °FScattered showers. Passing clouds.33 mph76%29.74 "HgN/A
9:30 PM48 °FPassing clouds.38 mph71%29.71 "HgN/A
9:00 PM48 °FPassing clouds.37 mph71%29.68 "HgN/A
8:30 PM46 °FPassing clouds.29 mph76%29.71 "HgN/A
8:00 PM46 °FPassing clouds.35 mph76%29.65 "HgN/A
Weather by CustomWeather, © 2015

See weather overviewHow to use our weather pages